Location: downtown San Diego
(32.7310°N, 117.1990°W)
Time: 10:08:13
(UTC-07:00)

SJ-6B - Pass Details

Date: 12 July 2018
Orbit: 511 x 582 km, 97.7° (Epoch: 21 September)

Event Time Altitude Azimuth Distance (km) Brightness Sun altitude
Rises 20:23:21 0° 171° (S) 2,760 6.0 -5.4°
Reaches altitude 10° 20:25:29 10° 173° (S) 1,874 5.2 -5.8°
Maximum altitude 20:29:33 74° 259° (WSW) 606 3.2 -6.5°
Drops below altitude 10° 20:33:41 10° 344° (NNW) 1,904 6.3 -7.2°
Sets 20:35:51 0° 346° (NNW) 2,807 7.2 -7.6°
